FENGYUN 1C DEB

Satellite information

Favourite Embed

Satellite Type and Status

DEBRISIN ORBIT

Key statistics

Satellite FENGYUN 1C DEB at a glance.

Uptime

9555

Days in orbit

Revolutions

≈ 12.8

Per day

Orbit

SSO

Sun Synchronous Orbit

Inclination

99.2

Latest

Satellite identification and parameters

Extended collection of information and parameters for FENGYUN 1C DEB.

Object identification

Identified? True

Debris? True

Object name: FENGYUN 1C DEB

International designator: 1999-025CDY

Object number (NORAD): 31725

Object ID (CCSDS): 31725

Country: PEOPLES REPUBLIC OF CHINA (PRC)

Current information (Y/N): Y

RCS size: SMALL

Orbital parameters

Period: 112.615 minutes

Inclination: 99.193 deg

SMA: 7724.874 km

Apoapsis: 1883.335 km

Periapsis: 810.143 km

RAAN: 71.6827 deg

Eccentricy: 0.0694634

Argument of periapsis: 336.2991 deg

Mean anomaly: 20.7486 deg

Mean motion: 12.78691157 rev/day

Mean motion (dot): 0.0000039 rev/day2

B* drag term: 0.00068728 1/REarth

Two-line elements (TLE)

Creation date: July 5, 2025, 6:36 a.m.

Reference frame: TEME

Reference center: EARTH

Epoch: July 4, 2025, 10:43 p.m. UTC

TLE line 0: 0 FENGYUN 1C DEB

TLE line 1: 1 31725U 99025CDY 25185.94708518 .00000390 00000-0 68728-3 0 9992

TLE line 2: 2 31725 99.1930 71.6827 0694634 336.2991 20.7486 12.78691157844265

Live tracking on map

Real-time ground track for satellite FENGYUN 1C DEB.

In-orbit conjunctions

A list of the most updated potential collisions computed for object FENGYUN 1C DEB.

Target Orbit TCA Probability of collision Miss distance Type
COSMOS 980 LEO 2025-04-29 21:01:35 0.0001311221 297.0 (m) PAYLOAD
COSMOS 2250 LEO 2025-04-10 18:55:46 0.0003558722 311.0 (m) PAYLOAD
SL-8 R/B LEO 2024-11-07 18:19:55 0.0001918697 419.0 (m) ROCKET BODY

Associated space launch

Chinese polar orbiting meteorological satellite

FENGYUN 1C DEB was lifted into orbit during the mission ‘Long March 4B | Feng Yun 1C’, on board a Long March 4B space rocket.

The launch took place on May 10, 1999, 1:33 a.m. from Launch Complex 7.

For more information about the launch, click the button.

Launch to space Long March 4B | Feng Yun 1C
Long March 4B | Feng Yun 1C

Agency: N/A

Status: Launch Successful

Launch date: May 10, 1999, 1:33 a.m. UTC

Rocket: Long March 4B

Launch pad: Launch Complex 7

Location: Taiyuan Satellite Launch Center, People's Republic of China

...

Latest news about this satellite

There are no fresh news available about this satellite. Check back as we update our databases every day.


Newsletter sign-up

Weekly statistics, charts and insights to help you stay on top of the space industry.